Weather History for Evanston, WY

Change the Weather History Date:

Wednesday, January 16, 2013

  Actual Average Record
Temperature  
Mean Temperature 16 °F 22 °F  
Max Temperature 25 °F 29 °F 42 °F (2000)
Min Temperature 7 °F 15 °F -7 °F (2008)
Degree Days  
Heating Degree Days 49 43  
Month to date heating degree days 788 698  
Since 1 July heating degree days 3762 4177  
Cooling Degree Days 0 0  
Month to date cooling degree days 0 0  
Year to date cooling degree days 0 0  
Moisture  
Dew Point 8 °F    
Average Humidity 77    
Maximum Humidity 92    
Minimum Humidity 62    
Precipitation  
Precipitation T in 0.02 in 0.00 in (2015)
Month to date precipitation 0.02 0.30  
Year to date precipitation 0.02 0.30  
Sea Level Pressure  
Sea Level Pressure 30.59 in    
Wind  
Wind Speed 11 mph (SW)    
Max Wind Speed 21 mph    
Max Gust Speed 24 mph    
Visibility 7 miles    
Events Fog , Snow    
T = Trace of Precipitation, MM = Missing Value Source: NWS Daily Summary

Daily Weather History Graph

Daily Weather History Graph

Search for Another Location

Airport:

Trip Planner

Search our weather history database for the weather conditions in past years. The results will help you decide how hot, cold, wet, or windy it might be!

Date:

Astronomy

Jan. 16, 2013 Rise Set
Actual Time 7:46 AM MST 5:21 PM MST
Civil Twilight 7:16 AM MST 5:51 PM MST
Nautical Twilight 6:42 AM MST 6:25 PM MST
Astronomical Twilight 6:09 AM MST 6:58 PM MST
Moon 10:21 AM MST (1/16) 11:20 PM MST (1/16)
Length of Visible Light 10h 35m
Length of Day
9h 34m
Waxing Crescent, 29% of the Moon is Illuminated
Jan 16
Waxing Crescent
Jan 18
First Quarter
Jan 26
Full
Feb 3
Last Quarter
Feb 10
New

Hourly Weather History & Observations

Time (MST) Temp. Windchill Dew Point Humidity Pressure Visibility Wind Dir Wind Speed Gust Speed Precip Events Conditions
12:53 AM 8.1 °F -7.0 °F 3.9 °F 83% 30.64 in 10.0 mi SW 11.5 mph - N/A   Clear
1:53 AM 7.0 °F -9.1 °F 3.9 °F 87% 30.66 in 10.0 mi SW 12.7 mph - N/A   Partly Cloudy
2:09 AM 8.6 °F -7.7 °F 3.2 °F 79% 30.42 in 10.0 mi SW 13.8 mph - N/A   Mostly Cloudy
2:53 AM 10.0 °F -6.5 °F 6.1 °F 84% 30.64 in 10.0 mi SW 15.0 mph - N/A   Overcast
3:53 AM 10.9 °F -7.0 °F 7.0 °F 84% 30.64 in 10.0 mi SW 18.4 mph - N/A   Overcast
4:53 AM 10.9 °F -7.0 °F 8.1 °F 88% 30.65 in 10.0 mi SW 18.4 mph - N/A   Overcast
5:31 AM 10.4 °F -8.2 °F 8.6 °F 92% 30.41 in 10.0 mi WSW 19.6 mph - N/A   Overcast
5:53 AM 10.9 °F -7.9 °F 8.1 °F 88% 30.66 in 9.0 mi SW 20.7 mph - N/A   Overcast
6:08 AM 10.4 °F -7.7 °F 8.6 °F 92% 30.41 in 8.0 mi SW 18.4 mph - N/A   Overcast
6:53 AM 10.0 °F -7.6 °F 7.0 °F 87% 30.67 in 10.0 mi SW 17.3 mph - N/A   Overcast
7:51 AM 10.4 °F -6.0 °F 6.8 °F 85% 30.43 in 1.8 mi SW 15.0 mph - N/A   Overcast
7:53 AM 10.0 °F -7.1 °F 7.0 °F 87% 30.69 in 1.8 mi SW 16.1 mph - N/A   Overcast
8:14 AM 8.6 °F -5.5 °F 6.8 °F 92% 30.44 in 3.0 mi SSW 10.4 mph - N/A   Overcast
8:45 AM 8.6 °F -7.7 °F 6.8 °F 92% 30.45 in 0.8 mi SSW 13.8 mph - N/A   Overcast
8:53 AM 9.0 °F -7.9 °F 7.0 °F 92% 30.70 in 0.2 mi SSW 15.0 mph - N/A Fog Light Freezing Fog
9:21 AM 10.4 °F -2.4 °F 6.8 °F 85% 30.46 in 1.0 mi SSW 9.2 mph - 0.00 in Snow Light Snow
9:31 AM 10.4 °F -3.3 °F 6.8 °F 85% 30.47 in 2.0 mi SSW 10.4 mph - 0.00 in   Overcast
9:40 AM 10.4 °F -5.4 °F 6.8 °F 85% 30.47 in 0.8 mi SSW 13.8 mph - 0.00 in   Mist
9:53 AM 10.9 °F -4.1 °F 8.1 °F 88% 30.73 in 1.2 mi SSW 12.7 mph - 0.00 in   Overcast
9:55 AM 10.4 °F -4.1 °F 8.6 °F 92% 30.47 in 2.5 mi SSW 11.5 mph - N/A   Overcast
10:02 AM 10.4 °F -4.8 °F 8.6 °F 92% 30.47 in 7.0 mi SSW 12.7 mph - N/A   Overcast
10:53 AM 12.9 °F -1.6 °F 10.0 °F 88% 30.73 in 9.0 mi SW 12.7 mph - N/A   Scattered Clouds
1:53 PM 21.9 °F 9.8 °F 14.0 °F 72% 30.63 in 10.0 mi SW 12.7 mph - N/A   Clear
2:53 PM 24.1 °F 13.1 °F 14.0 °F 65% 30.61 in 10.0 mi WSW 11.5 mph - N/A   Clear
3:53 PM 23.0 °F 12.4 °F 14.0 °F 68% 30.61 in 10.0 mi WSW 10.4 mph - N/A   Clear
4:53 PM 21.9 °F 10.4 °F 12.9 °F 68% 30.61 in 10.0 mi WSW 11.5 mph - N/A   Clear
5:53 PM 21.0 °F 13.4 °F 12.0 °F 68% 30.63 in 10.0 mi SW 5.8 mph - N/A   Clear
6:53 PM 19.0 °F - 12.0 °F 74% 30.65 in 10.0 mi Calm Calm - N/A   Clear
7:53 PM 12.9 °F 5.2 °F 8.1 °F 81% 30.69 in 10.0 mi North 4.6 mph - N/A   Clear
8:53 PM 14.0 °F 8.2 °F 8.1 °F 77% 30.70 in 10.0 mi North 3.5 mph - N/A   Clear
9:53 PM 10.9 °F 0.2 °F 6.1 °F 81% 30.71 in 10.0 mi NNE 6.9 mph - N/A   Clear
10:53 PM 9.0 °F - 5.0 °F 84% 30.70 in 10.0 mi Calm Calm - N/A   Clear
11:53 PM 10.0 °F 3.6 °F 6.1 °F 84% 30.69 in 10.0 mi SSE 3.5 mph - N/A   Clear